[[{"header":{"parameterUnit":"m.s-1","parameterCategory":1,"la1":30.2991,"la2":30.254,"lo1":-89.0895,"lo2":-89.0444,"dy":0.0017,"dx":0.0017,"nx":28,"ny":28,"refTime":"2024-06-14T09:00:00:Z","depth":0,"parameterNumber":2,"parameterNumberName":"U-component_of_WINDS"},"data":[0,0,0,0,0,0,0,0,0,0,0,0,0,0,0,0,0,0,0,0,0,0,0,0,0,0,0,0,0,0,0,0,0,0,0,0,0,0,0,0,0,0,0,0,0,0,0,0,0,0,0,0,0,0,0,0,0,0,1.121,1.121,0,1.1188,1.1188,1.1188,1.11,1.1098,1.1096,1.1095,1.1075,1.1077,1.1078,0,0,0,0,0,0,0,0,0,0,0,0,0,1.1177,1.1178,1.121,1.121,1.1209,1.1188,1.1188,1.1188,1.1101,1.1098,1.1096,1.1094,1.1075,1.1077,1.1078,0,0,0,0,0,0,0,0,0,0,0,0,0,1.1177,1.1179,1.121,1.1163,1.1159,1.1188,1.1188,1.1187,1.1101,1.1098,1.1095,1.1092,1.1074,1.1076,1.1078,1.1152,0,0,1.1085,1.1086,0,0,0,0,0,0,0,0,1.1177,1.1179,1.117,1.1167,1.1162,1.1144,1.1169,1.1176,1.1102,1.1123,1.1094,1.1091,1.1101,1.11,1.1103,1.1151,1.115,1.1085,1.1086,1.1087,1.1088,0,0,0,0,0,0,0,1.1178,1.1179,1.1201,1.117,1.1165,1.1144,1.1141,1.117,1.1129,1.1121,1.1115,1.1113,1.1098,1.1101,1.1102,1.115,1.1085,1.1087,1.1088,1.1089,1.1254,1.1257,0,0,0,0,0,0,1.1184,1.118,1.1202,1.1201,1.1162,1.1147,1.1143,1.1153,1.1129,1.1122,1.1116,1.1109,1.1099,1.11,1.1101,1.1184,1.1087,1.1089,1.109,1.1251,1.1255,1.1259,0,0,0,0,0,0,1.1183,1.1187,1.1203,1.1188,1.1189,1.1151,1.1162,1.1154,1.1157,1.1125,1.1117,1.1127,1.1097,1.1098,1.1139,1.1182,1.109,1.1092,1.1248,1.1252,1.1257,1.1352,0,0,0,0,0,0,1.1183,1.1187,1.1214,1.119,1.119,1.1241,1.1165,1.1156,1.1161,1.1152,1.1133,1.1127,1.1095,1.1137,1.1141,1.1184,1.1093,1.1244,1.125,1.1255,1.1345,1.1359,1.1372,0,0,0,0,0,1.1182,1.1243,1.1216,1.122,1.1223,1.1244,1.1244,1.1205,1.1165,1.1192,1.117,1.1128,1.1177,1.1141,1.1146,1.119,1.1241,1.1248,1.1255,1.1339,1.1357,1.1372,0,0,0,0,0,0,1.1276,1.1239,1.1209,1.1264,1.1257,1.1229,1.1263,1.1225,1.1231,1.1223,1.1174,1.1171,1.1219,1.1208,1.1169,1.1258,1.1201,1.121,1.1264,1.128,1.1294,1.1295,1.1095,0,0,0,0,0,1.1303,1.1322,1.1289,1.1341,1.1339,1.1301,1.1309,1.1279,1.1271,1.1268,1.125,1.1244,1.1258,1.1268,1.128,1.1342,1.1337,1.1375,1.1388,1.1399,1.1407,1.1439,1.1455,1.1282,1.1282,1.1282,0,0,1.1359,1.1341,1.1357,1.1359,1.135,1.1372,1.13,1.1326,1.1341,1.1272,1.1309,1.1296,1.1286,1.1338,1.136,1.1331,1.1454,1.1408,1.1418,1.142,1.1448,1.1464,1.1479,1.1287,1.1286,1.1285,0,0,1.1472,1.1461,1.1502,1.1494,1.1481,1.1455,1.1465,1.1442,1.143,1.1466,1.1414,1.1432,1.1457,1.1452,1.1453,1.1561,1.1522,1.1566,1.1637,1.1668,1.1682,1.1694,1.1732,1.1746,1.1574,1.1575,1.1575,0,1.1544,1.1573,1.1528,1.1556,1.1559,1.1495,1.1536,1.1531,1.1524,1.1527,1.1494,1.1522,1.1512,1.1561,1.1587,1.159,1.16,1.1569,1.1683,1.1695,1.1705,1.1741,1.1756,1.158,1.1579,1.1579,1.1578,0,1.1662,1.1683,1.1717,1.1709,1.1715,1.175,1.171,1.1722,1.169,1.1668,1.1705,1.169,1.1696,1.1705,1.1676,1.175,1.1732,1.1692,1.1634,1.1728,1.1761,1.1774,1.1588,1.1586,1.1584,1.1583,0,0,1.1835,1.18,1.1813,1.1808,1.1788,1.1804,1.1835,1.184,1.185,1.1847,1.1872,1.1893,1.1856,1.1857,1.1826,1.1853,1.1939,1.1809,1.1808,1.1834,1.2018,1.2049,1.2065,1.1912,1.1914,1.1916,1.2019,0,1.1943,1.1993,1.1952,1.2011,1.2029,1.1968,1.1995,1.1986,1.1966,1.1979,1.1956,1.1972,1.1921,1.1921,1.1945,1.1923,1.1975,1.1915,1.1935,1.1937,1.194,1.2083,1.2115,1.2213,1.2032,1.2034,1.2035,0,1.2075,1.2075,1.2135,1.2109,1.2115,1.2141,1.214,1.2153,1.2142,1.2125,1.2125,1.2086,1.2115,1.2057,1.2096,1.2056,1.2062,1.2052,1.2055,1.2055,1.1992,1.2087,1.2243,1.2258,1.2055,1.2054,1.2052,0,1.2195,1.221,1.2247,1.2245,1.2216,1.2235,1.2224,1.2209,1.2214,1.2214,1.2216,1.222,1.2223,1.2227,1.219,1.2152,1.2234,1.2173,1.2221,1.2222,1.2241,1.2241,1.24,1.2245,1.2245,1.2245,1.2244,0,1.2319,1.2358,1.23,1.2324,1.2365,1.2317,1.236,1.2343,1.2329,1.2348,1.2296,1.2315,1.2265,1.2279,1.225,1.2286,1.2288,1.2275,1.2267,1.228,1.2282,1.2283,1.2275,1.2248,1.2247,1.2247,1.2246,0,1.2461,1.2424,1.246,1.2429,1.2422,1.2454,1.2427,1.2447,1.2422,1.2447,1.245,1.2411,1.2424,1.2387,1.2396,1.2376,1.2429,1.241,1.2432,1.2427,1.2476,1.2472,1.2642,1.2662,1.2495,1.2496,1.2498,0,1.2542,1.257,1.2541,1.2549,1.2541,1.2555,1.2558,1.2512,1.2518,1.2506,1.2527,1.2536,1.254,1.2564,1.2537,1.2542,1.2523,1.2582,1.2524,1.2535,1.2523,1.2522,1.2524,1.2595,1.2597,1.2599,1.26,0,1.2691,1.2671,1.2678,1.2678,1.2683,1.2682,1.2676,1.2686,1.2636,1.2646,1.2658,1.2661,1.2668,1.2677,1.2676,1.2665,1.2625,1.2618,1.2629,1.2643,1.2655,1.2648,1.2465,1.2615,1.2613,1.2612,1.2612,1.2611,1.2805,1.2826,1.2809,1.2818,1.2808,1.2804,1.2821,1.2797,1.2805,1.2806,1.2779,1.2796,1.2782,1.2776,1.2769,1.2782,1.2755,1.2772,1.2776,1.278,1.2788,1.2652,1.2782,1.2782,1.2781,1.2781,1.278,0,1.295,1.2935,1.2944,1.2937,1.2944,1.2903,1.2895,1.2904,1.2919,1.2909,1.2913,1.2926,1.2934,1.2907,1.2911,1.2927,1.2908,1.2929,1.2928,1.2926,1.2813,1.2803,1.2944,1.2944,1.2944,1.2944,1.2944,1.2944,1.3027,1.3061,1.3038,1.3066,1.3051,1.3066,1.3065,1.3061,1.3052,1.3068,1.3074,1.3055,1.3038,1.304,1.3045,1.3037,1.3041,1.3069,1.3054,1.295,1.2934,1.2919,1.2909,1.307,1.307,1.3165,1.3166,1.3167]},{"header":{"parameterUnit":"m.s-1","parameterCategory":1,"la1":30.2991,"la2":30.254,"lo1":-89.0895,"lo2":-89.0444,"dy":0.0017,"dx":0.0017,"nx":28,"ny":28,"refTime":"2024-06-14T09:00:00:Z","depth":0,"parameterNumber":3,"parameterNumberName":"V-component_of_WINDS"},"data":[0,0,0,0,0,0,0,0,0,0,0,0,0,0,0,0,0,0,0,0,0,0,0,0,0,0,0,0,0,0,0,0,0,0,0,0,0,0,0,0,0,0,0,0,0,0,0,0,0,0,0,0,0,0,0,0,0,0,-1.1166,-1.1167,0,-1.1255,-1.1256,-1.1257,-1.1304,-1.1304,-1.1304,-1.1305,-1.1398,-1.14,-1.1403,0,0,0,0,0,0,0,0,0,0,0,0,0,-1.1042,-1.1044,-1.1166,-1.1167,-1.1168,-1.1255,-1.1256,-1.1257,-1.1304,-1.1304,-1.1304,-1.1305,-1.1397,-1.14,-1.1403,0,0,0,0,0,0,0,0,0,0,0,0,0,-1.111,-1.1045,-1.1166,-1.1202,-1.1206,-1.1254,-1.1256,-1.1257,-1.1304,-1.1304,-1.1305,-1.1305,-1.1396,-1.14,-1.1403,-1.1423,0,0,-1.1414,-1.1416,0,0,0,0,0,0,0,0,-1.1106,-1.1114,-1.1196,-1.12,-1.1204,-1.1269,-1.1246,-1.1313,-1.1304,-1.1267,-1.1305,-1.1305,-1.1355,-1.1362,-1.1378,-1.1427,-1.1431,-1.1415,-1.1417,-1.1418,-1.1419,0,0,0,0,0,0,0,-1.1101,-1.1111,-1.1201,-1.1197,-1.1202,-1.1215,-1.1225,-1.1259,-1.1309,-1.127,-1.1274,-1.1284,-1.1357,-1.1375,-1.1381,-1.1433,-1.1415,-1.1418,-1.142,-1.1421,-1.1505,-1.1505,0,0,0,0,0,0,-1.109,-1.1107,-1.1198,-1.1204,-1.1154,-1.1218,-1.1229,-1.1248,-1.1309,-1.1318,-1.1284,-1.1286,-1.1369,-1.1377,-1.1384,-1.1413,-1.1418,-1.1422,-1.1424,-1.1505,-1.1505,-1.1505,0,0,0,0,0,0,-1.1087,-1.1098,-1.1195,-1.1156,-1.117,-1.122,-1.1241,-1.125,-1.1267,-1.1319,-1.1328,-1.1292,-1.1369,-1.1379,-1.1413,-1.1417,-1.1423,-1.1427,-1.1505,-1.1505,-1.1505,-1.1468,0,0,0,0,0,0,-1.1083,-1.1096,-1.1103,-1.1156,-1.1171,-1.1221,-1.1241,-1.1251,-1.1273,-1.1276,-1.1329,-1.1338,-1.137,-1.1408,-1.1417,-1.1422,-1.1429,-1.1504,-1.1505,-1.1505,-1.1469,-1.1467,-1.1465,0,0,0,0,0,-1.1079,-1.109,-1.1103,-1.1114,-1.1181,-1.1221,-1.123,-1.1265,-1.1273,-1.1281,-1.1315,-1.1336,-1.1415,-1.1411,-1.1422,-1.1427,-1.1504,-1.1505,-1.1505,-1.147,-1.1468,-1.1465,0,0,0,0,0,0,-1.1036,-1.1097,-1.1113,-1.1141,-1.1175,-1.1229,-1.124,-1.1261,-1.1294,-1.1297,-1.134,-1.1352,-1.1382,-1.1408,-1.1403,-1.1451,-1.1462,-1.1464,-1.1432,-1.143,-1.1428,-1.1421,-1.1432,0,0,0,0,0,-1.103,-1.1056,-1.1108,-1.1128,-1.1145,-1.1189,-1.1208,-1.1232,-1.127,-1.1285,-1.1321,-1.1358,-1.1392,-1.1412,-1.1446,-1.1474,-1.1487,-1.1483,-1.1481,-1.1479,-1.1481,-1.15,-1.1499,-1.1505,-1.1505,-1.1505,0,0,-1.1017,-1.1054,-1.1068,-1.112,-1.115,-1.1178,-1.1201,-1.1229,-1.125,-1.129,-1.1324,-1.1352,-1.1396,-1.1428,-1.1444,-1.1451,-1.1482,-1.1479,-1.1477,-1.148,-1.15,-1.1499,-1.1499,-1.1505,-1.1505,-1.1505,0,0,-1.1009,-1.1038,-1.1059,-1.1088,-1.1133,-1.1163,-1.1167,-1.1218,-1.1238,-1.1273,-1.1304,-1.1331,-1.1387,-1.1418,-1.144,-1.1446,-1.1468,-1.1456,-1.1444,-1.1462,-1.1462,-1.1462,-1.1465,-1.1465,-1.1457,-1.1457,-1.1457,0,-1.0988,-1.1029,-1.1067,-1.1093,-1.1116,-1.1153,-1.1175,-1.1202,-1.1256,-1.1271,-1.1279,-1.1351,-1.1383,-1.1423,-1.1424,-1.1441,-1.145,-1.145,-1.1459,-1.1459,-1.1459,-1.1463,-1.1464,-1.1455,-1.1455,-1.1456,-1.1456,0,-1.1002,-1.1031,-1.1042,-1.1092,-1.1117,-1.1141,-1.1184,-1.1204,-1.1227,-1.1257,-1.1294,-1.1334,-1.1377,-1.1388,-1.1411,-1.1432,-1.1436,-1.145,-1.1462,-1.1456,-1.1461,-1.1462,-1.1453,-1.1453,-1.1454,-1.1454,0,0,-1.0968,-1.104,-1.1043,-1.1067,-1.112,-1.1144,-1.1171,-1.1212,-1.123,-1.1266,-1.1291,-1.1338,-1.1352,-1.1378,-1.1405,-1.1421,-1.1424,-1.1434,-1.1436,-1.1431,-1.1453,-1.1442,-1.1442,-1.144,-1.144,-1.144,-1.1449,0,-1.0967,-1.1016,-1.1051,-1.1087,-1.1115,-1.1152,-1.1175,-1.1211,-1.124,-1.127,-1.1303,-1.1336,-1.1351,-1.1368,-1.1385,-1.142,-1.1429,-1.142,-1.1465,-1.1466,-1.1452,-1.1445,-1.1433,-1.1439,-1.1451,-1.1451,-1.1452,0,-1.0973,-1.1007,-1.1046,-1.1097,-1.111,-1.1131,-1.1173,-1.12,-1.1242,-1.1263,-1.1292,-1.132,-1.1353,-1.1362,-1.1408,-1.1401,-1.1421,-1.1442,-1.1443,-1.1449,-1.1458,-1.1451,-1.1442,-1.1443,-1.1454,-1.1454,-1.1454,0,-1.0945,-1.1002,-1.1032,-1.1052,-1.1112,-1.1126,-1.1152,-1.1195,-1.1218,-1.1255,-1.1271,-1.1312,-1.1334,-1.1366,-1.1405,-1.1408,-1.1448,-1.146,-1.1467,-1.1466,-1.1473,-1.1472,-1.1468,-1.1486,-1.1486,-1.1486,-1.1486,0,-1.0941,-1.0963,-1.1021,-1.1039,-1.1066,-1.1108,-1.1134,-1.1163,-1.1201,-1.1228,-1.1262,-1.1287,-1.1337,-1.1368,-1.1399,-1.1433,-1.1443,-1.1462,-1.147,-1.1459,-1.1456,-1.1473,-1.1474,-1.1486,-1.1486,-1.1486,-1.1486,0,-1.0914,-1.0953,-1.0989,-1.1044,-1.1059,-1.1076,-1.1124,-1.1145,-1.1176,-1.121,-1.122,-1.127,-1.1309,-1.1351,-1.1404,-1.1425,-1.1458,-1.1469,-1.1443,-1.1448,-1.1453,-1.1452,-1.1459,-1.1463,-1.1477,-1.1477,-1.1476,0,-1.0909,-1.0927,-1.0984,-1.1004,-1.1029,-1.106,-1.1085,-1.1127,-1.1151,-1.1202,-1.1217,-1.1258,-1.1294,-1.1354,-1.1396,-1.1438,-1.1451,-1.1451,-1.1457,-1.1446,-1.1452,-1.1451,-1.1453,-1.1448,-1.1448,-1.1448,-1.1447,0,-1.0896,-1.0915,-1.0948,-1.0988,-1.1016,-1.105,-1.1085,-1.11,-1.115,-1.1176,-1.1215,-1.1243,-1.1297,-1.1339,-1.1385,-1.1414,-1.144,-1.1445,-1.1449,-1.1438,-1.1423,-1.1432,-1.1438,-1.1445,-1.1445,-1.1445,-1.1445,-1.1445,-1.0881,-1.0899,-1.0942,-1.0978,-1.101,-1.1042,-1.1065,-1.11,-1.1133,-1.118,-1.1204,-1.1244,-1.1289,-1.1354,-1.1383,-1.1416,-1.1424,-1.1429,-1.1431,-1.1431,-1.1429,-1.1417,-1.1425,-1.1425,-1.1425,-1.1425,-1.1425,0,-1.087,-1.09,-1.0933,-1.0982,-1.1011,-1.1031,-1.1072,-1.1096,-1.113,-1.1169,-1.1203,-1.125,-1.1291,-1.1337,-1.1381,-1.1399,-1.1412,-1.1409,-1.1408,-1.1415,-1.1419,-1.1411,-1.1398,-1.1398,-1.1398,-1.1398,-1.1398,-1.1398,-1.0868,-1.0901,-1.0925,-1.0975,-1.1005,-1.1044,-1.1066,-1.1097,-1.1129,-1.1179,-1.1213,-1.1242,-1.1285,-1.1333,-1.1372,-1.1384,-1.14,-1.1393,-1.141,-1.1412,-1.1415,-1.1417,-1.141,-1.1396,-1.1396,-1.1403,-1.1403,-1.1403]}]]